www.pogodaiklimat.ru
Время
(UTC), дата
15 17.01
18 17.01
21 17.01
00 18.01
03 18.01
06 18.01
09 18.01
12 18.01
15 18.01
18 18.01
21 18.01
00 19.01
03 19.01
06 19.01
09 19.01
12 19.01
15 19.01
18 19.01
21 19.01
00 20.01
03 20.01
06 20.01
09 20.01
12 20.01
15 20.01
18 20.01
21 20.01
00 21.01
03 21.01
06 21.01
09 21.01
12 21.01
15 21.01
18 21.01
21 21.01
00 22.01
03 22.01
06 22.01
09 22.01
12 22.01
15 22.01
18 22.01
21 22.01
00 23.01
03 23.01
06 23.01
09 23.01
12 23.01
15 23.01
18 23.01
21 23.01
00 24.01
03 24.01
06 24.01
09 24.01
Ветер
(напр.,м/с)
Видим. Явления Облачность Т
(С)
Тd
(С)
f
(%)
Тe
(С)
Тes
(С)
Комфортность P
(гПа)
Po
(гПа)
Тmin
(С)
Tmax
(С)
R
(мм)
R24
(мм)
S
(см)
З 4 3600 м ливневой снег 10/10 330 м
[Cb cap]
+0.3 +0.2 99 -5 -5 тепло 1005.6 1004.6 +0.3 1
СЗ 4
{11}
18 км в посл. час ливневой снег 10/10 240 м
[Cb cap]
-0.3 -1.1 94 -6 -6 тепло 1007.9 1006.9
СЗ 2
{10}
19 км в посл. час ливневой снег 10/10 480 м
[Cb cap]
-1.4 -2.5 92 -5 -5 тепло 1011.1 1010.1
ЮЗ 1 21 км {ливн. осадки} 8/8 840 м
[Sc]
-4.2 -4.8 96 -7 -7 по сезону 1014.9 1013.8
Ю 1 17 км 10/10 400 м
[St]
-3.9 -4.2 98 -6 -6 тепло 1016.0 1015.0 -4.3 0.7 28
ЮВ 2 20 км 9/9 300 м
[St]
-3.7 -4.1 97 -8 -8 по сезону 1016.7 1015.6
ЮВ 1 10 км 10/5 600 м
[Sc Ac und]
-3.9 -4.7 94 -6 -6 тепло 1016.7 1015.7
В 2 10 км 10/8 480 м
[Sc Ac und]
-4.1 -5.0 93 -8 -8 по сезону 1015.5 1014.4
В 2 6000 м слаб. снег 10/0 540 м
[As op]
-4.5 -5.1 96 -9 -9 по сезону 1014.1 1013.0 -3.6 0.0
В 3 6000 м слаб. снег 10/0
[As op]
-4.5 -5.2 95 -10 -10 по сезону 1012.5 1011.4
В 3 4400 м слаб. снег 10/0
[As op]
-4.8 -5.4 96 -10 -10 по сезону 1010.8 1009.8
В 3 1000 м сильн. снег 10/10 360 м
[Frnb Ns]
-4.9 -5.4 96 -11 -11 по сезону 1010.7 1009.7
В 3 4500 м слаб. снег 10/4 300 м
[Frnb As op]
-5.4 -6.1 95 -11 -11 по сезону 1011.2 1010.2 -5.4 6 37
В 3 4000 м слаб. снег 10/0
[As op]
-6.1 -6.9 94 -12 -12 по сезону 1012.4 1011.4 -6.1
В 2 4000 м слаб. снег 10/0
[Ac As]
-6.2 -7.4 91 -11 -11 по сезону 1013.2 1012.2
В 2 4000 м слаб. снег 10/0
[As op]
-6.5 -7.4 93 -11 -11 по сезону 1013.1 1012.1
В 2 20 км {снег} 10/10 360 м
[St]
-6.9 -8.0 92 -11 -11 по сезону 1013.5 1012.5 -5.4 1
В 3 8000 м слаб. снег 10/0
[As op]
-8.0 -9.4 90 -14 -14 прохладно 1014.2 1013.1
СВ 1 20 км {снег} ясно -11.9 -12.9 92 -14 -14 прохладно 1014.7 1013.7
СВ 2 17 км {снег} 10/10 450 м
[Sc]
-12.4 -13.7 90 -17 -17 по сезону 1015.9 1014.8
В 1 18 км 10/10 450 м
[Sc]
-12.4 -13.8 89 -15 -15 по сезону 1014.8 1013.7 -13.0 0.3 37
ЮВ 1 21 км 10/10 240 м
[St]
-12.1 -13.1 92 -14 -14 по сезону 1014.3 1013.2
ЮВ 2 500 м переохл. туман ?/? -10.8 -11.6 94 -15 -15 по сезону 1012.6 1011.5
ЮВ 2 10 км {туман} 10/10 150 м
[St]
-10.2 -11.5 90 -15 -15 по сезону 1010.3 1009.2
ЮВ 2 7000 м слаб. снег 10/0 480 м
[As op]
-7.4 -7.9 96 -12 -12 по сезону 1007.0 1005.9 -7.4 0.0
Ю 3 19 км {снег} 10/10 600 м
[Sc]
-3.4 -3.5 99 -9 -9 по сезону 1002.2 1001.2
Ю 3 8000 м слаб. снег 10/0 480 м
[As op]
-1.8 -2.7 94 -7 -7 тепло 998.0 997.0
Ю 3 18 км {снег} 10/10 600 м
[Sc]
-1.8 -2.7 94 -7 -7 тепло 993.1 992.1
Ю 3 10 км слаб. снег 10/10 420 м
[Sc]
-1.0 -1.6 96 -6 -6 тепло 988.1 987.1 -7.4 0.3 38
Ю 2 1300 м сильн. снег 10/0 420 м
[As op]
-0.5 -0.5 100 -5 -5 тепло 982.0 981.0
ЮЗ 3 2000 м снег 10/10 360 м
[Frnb Ns]
+0.2 +0.2 100 -5 -5 тепло 977.7 976.7
СЗ 5-10
{10}
1000 м сильн. снег 10/10 330 м
[Frnb Ns]
-0.2 -0.2 100 -7 -7 тепло 978.0 977.1
СЗ 6-11
{16}
20 км {снег, метель} 10/10 400 м
[St]
-0.4 -1.9 90 -7 -7 тепло 981.0 980.0 +0.3 6
СЗ 4
{12}
23 км {снег, метель} 4/4 600 м
[Sc]
-1.9 -2.8 94 -8 -8 тепло 980.9 979.9
З 2 21 км 10/10 240 м
[St]
-1.9 -2.6 95 -6 -6 тепло 980.4 979.4
З 3 18 км 10/10 240 м
[St]
-1.2 -1.9 95 -6 -6 тепло 979.8 978.8
СЗ 4 20 км {ливн. осадки} 10/10 540 м
[Sc]
-1.7 -2.8 92 -8 -8 тепло 980.6 979.6 -2.1 0.5 42
СЗ 4
{10}
17 км в посл. час ливневой снег 10/10 450 м
[Cb cap]
-2.0 -3.6 89 -8 -8 тепло 981.4 980.4
СЗ 4
{10}
10 км 9/8 930 м
[Cb cap Ac cuf]
-2.3 -4.7 84 -8 -8 тепло 983.5 982.5
СЗ 5-11
{13}
10 км в посл. час ливневой снег 9/8 900 м
[Cb cap Ac cuf]
-2.8 -5.0 85 -10 -10 тепло 986.0 985.0
СЗ 4
{13}
18 км в посл. час ливневой снег 8/8 800 м
[Cb cap]
-4.3 -7.7 77 -10 -10 тепло 988.2 987.2 -1.7 0.4
СЗ 6-11
{13}
20 км позёмок {ливн. осадки} 9/9 700 м
[Cb cap]
-4.0 -7.3 78 -11 -11 по сезону 988.9 987.9
СЗ 5-12
{12}
6000 м слаб. ливневой снег {метель} 10/10 630 м
[Cb cap]
-4.7 -6.1 90 -12 -12 по сезону 989.5 988.5
СЗ 5-10
{12}
5000 м слаб. ливневой снег {метель} 10/10 450 м
[Cb cap]
-4.1 -5.4 91 -11 -11 тепло 989.9 988.9
СЗ 4
{15}
2200 м ливневой снег {метель} 10/10 420 м
[Cb cap]
-4.1 -4.9 94 -11 -11 тепло 988.9 987.9 -4.9 2 43
СЗ 4
{10}
10 км в посл. час ливневой снег {метель} 3/3 300 м
[Sc Ac trans]
-4.3 -5.4 92 -11 -11 тепло 990.2 989.2
СЗ 4 10 км {ливн. осадки} 10/1 600 м
[Cb cap Ac und]
-3.4 -5.7 84 -10 -9 тепло 994.2 993.1
С 5 10 км {ливн. осадки} 9/8 600 м
[Cb cap Ac trans]
-2.8 -5.6 81 -9 -9 тепло 996.5 995.4
СЗ 3 20 км 9/3 600 м
[Sc Ac trans]
-3.2 -5.4 85 -8 -8 тепло 997.5 996.4 -2.6 0.3
СЗ 3 21 км 9/8 570 м
[Sc Ac trans]
-3.3 -6.1 81 -8 -8 тепло 998.2 997.2
З 1 19 км 10/10 540 м
[Sc]
-3.7 -5.7 86 -6 -6 тепло 997.5 996.5
З 4 7000 м слаб. ливневой снег 9/9 600 м
[Cb cap]
-5.3 -7.1 87 -12 -12 по сезону 996.5 995.5
Ю 3 9000 м слаб. ливневой снег 9/6 480 м
[Cb cap Ac cuf]
-7.9 -9.6 88 -14 -14 по сезону 993.7 992.7 -7.9 0.5 43
ЮВ 2 10 км {ливн. осадки} 9/1 600 м
[Sc Ac As]
-10.3 -11.6 90 -15 -15 по сезону 991.4 990.4 -10.3
ЮВ 4 10 км 9/1 600 м
[Sc Ac As Ci fib]
-10.9 -12.5 88 -18 -18 по сезону 989.9 988.9
Местоположение метеостанции Архангельск (Архангельская область, Россия): широта 64.50 долгота 40.73 высота над уровнем моря 8 м.
В архиве по умолчанию представлена погода в Архангельске за последнюю неделю. Архивные данные за месяц целиком и за предыдущие месяцы, начиная с января 2011 года, Вы можете получить, выбрав интересующий диапазон дат из раскрывающегося списка и нажав кнопку "Найти!".
*Определитесь, кто Вы:
Внимание! Время в таблицах - всемирное. Для получения местного времени необходимо прибавить поправку, которая равна 3 ч.
Смотрите также архив погоды в соседних городах и на ближайших метеорологических станциях:
Партнеры нашего сайта:      
Пояснения к столбцам:
  • Ветер - указаны скорость ветра в м/с - средняя за 10 мин, порывы в срок и между сроками (в фигурных скобках) и направление, откуда дует ветер: С - северный,
  • СВ - северо-восточный, В - восточный, ЮВ - юго-восточный, Ю - южный, ЮЗ - юго-западный, З - западный, СЗ - северо-западный.
  • Видимость - горизонтальная дальность видимости в метрах или километрах. При видимости от 1 до 10 км при отсутствии осадков обычно наблюдается дымка, при ухудшении видимости до 1 км и менее - туман. В сухую погоду видимость может ухудшаться дымом, пылью или мглою.
  • Явления - указаны атмосферные явления, наблюдавшиеся в срок или в последний час перед сроком; фигурными скобками обозначены явления, наблюдавшиеся между сроками (за 1-3 часа до срока); квадратными скобками обозначены град или гололедные отложения с указанием их диаметра в мм.
  • Облачность - указаны через наклонную черту общая и нижняя облачность в баллах и высота нижней границы облаков в метрах; квадратными скобками обозначены формы облаков: Ci - перистые, Cs - перисто-слоистые, Cc - перисто-кучевые, Ac - высококучевые, As - высокослоистые, Sc - слоисто-кучевые, Ns - слоисто-дождевые, Cu - кучевые, Cb - кучево-дождевые. Подробнее классификацию облаков см. в Атласе облаков (PDF).
  • T - Температура воздуха - температура, измеренная на высоте 2 м над землей.
  • Td - Температура точки росы - температура, при понижении до которой содержащийся в воздухе водяной пар достигнет насыщения.
  • f - Относительная влажность воздуха - влажноcть воздуха, измеренная на высоте 2 м над землей.
  • Te - Эффективная температура - температура, которую ощущает одетый по сезону человек в тени. Характеристика душности погоды. При расчете учитывается влияние влажности воздуха и скорости ветра на теплоощущения человека.
  • Tes - Эффективная температура на солнце - температура, которую ощущает человек, с поправкой на солнечный нагрев. Характеристика знойности погоды. Зависит от высоты солнца над горизонтом, облачности и скорости ветра. Ночью, в пасмурную погоду, а также при ветре 12 м/с и более поправка равна нулю.
  • P - Атмосферное давление - приведенное к уровню моря атмосферное давление.
  • Po - Атмосферное давление - измеренное на уровне метеостанции атмосферное давление.
  • Tmin - Минимальная температура - минимум температуры воздуха на высоте 2 м над землей.
  • Tmax - Максимальная температура - максимум температуры воздуха на высоте 2 м над землей.
  • R - Количество осадков - Количество выпавших осадков за период времени, мм. При наведении курсора мыши на число - период времени, за который выпало указанное количество осадков.
  • R24 - Количество осадков - Количество выпавших осадков за 24 часа, мм.
  • S - Снежный покров - Высота снежного покрова, см. При наведении курсора мыши на число - состояние снежного покрова и степень покрытия местности в баллах.